Regional Weather Roundup
Issued by NWS

Home | Current Version | Previous Version | Graphics & Text | Print | Product List | Glossary Off
Versions: 1 2 3 4 5 6 7 8 9 10 11 12 13 14 15 16 17 18 19 20 21 22 23 24 25 26 27 28 29 30 31 32 33 34 35 36 37 38 39 40 41 42 43 44 45 46 47 48 49 50

000
ASUS43 KTOP 250608
RWRKS

WEATHER ROUNDUP FOR KANSAS
NATIONAL WEATHER SERVICE GOODLAND KS
100 AM CDT THU MAY 25 2017

NOTE:  "FAIR" INDICATES FEW OR NO CLOUDS BELOW 12,000 FEET WITH NO
SIGNIFICANT WEATHER AND/OR OBSTRUCTIONS TO VISIBILITY.

KSZ001>006-013>018-027>032-041>047-250700-
NORTHWEST KANSAS

CITY           SKY/WX    TMP DP  RH WIND       PRES   REMARKS
GOODLAND       CLEAR     56  46  69 S16       29.57F
6HR MIN TEMP:  56; 6HR MAX TEMP:  75;

HAYS           CLEAR     53  46  77 SE12      29.64S
HILL CITY      CLEAR     54  46  74 S10       29.62F
6HR MIN TEMP:  53; 6HR MAX TEMP:  71;

RUSSELL        CLEAR     53  45  74 SE15      29.63F
6HR MIN TEMP:  52; 6HR MAX TEMP:  67;

$$

KSZ061>065-074>080-084>089-250700-
SOUTHWEST KANSAS

CITY           SKY/WX    TMP DP  RH WIND       PRES   REMARKS
DODGE CITY     CLEAR     54  44  69 S14       29.65F
6HR MIN TEMP:  54; 6HR MAX TEMP:  72;

ELKHART          N/A     52  41  66 SE9         N/A
GARDEN CITY    CLEAR     56  43  61 S14G25    29.63S
6HR MIN TEMP:  56; 6HR MAX TEMP:  75;

GREAT BEND     CLEAR     53  45  74 SE10      29.66F
LIBERAL        CLEAR     56  49  77 SE13      29.65S
PRATT          CLEAR     51  42  72 SE8       29.68S
6HR MIN TEMP:  50; 6HR MAX TEMP:  66;

$$

KSZ066>073-081>083-090>101-250700-
SOUTHEAST KANSAS

CITY           SKY/WX    TMP DP  RH WIND       PRES   REMARKS
CHANUTE        CLEAR     51  46  83 S3        29.72R
6HR MIN TEMP:  50; 6HR MAX TEMP:  67;

COFFEYVILLE    CLEAR     49  48  97 SE3       29.72S
6HR MIN TEMP:  49; 6HR MAX TEMP:  68;

HUTCHINSON     CLEAR     50  45  83 E6        29.68F
6HR MIN TEMP:  49; 6HR MAX TEMP:  67;

MEDICINE LODGE   N/A     53  45  74 SE7       29.69R
NEWTON         CLEAR     50  45  83 SE6       29.71R
PARSONS        CLEAR     48  46  93 CALM      29.73S
6HR MIN TEMP:  47; 6HR MAX TEMP:  67;

WICHITA INTL   CLEAR     50  44  80 S5        29.70R
6HR MIN TEMP:  50; 6HR MAX TEMP:  67;

WICHITA JABRA  CLEAR     50  44  80 S6        29.70R
6HR MIN TEMP:  50; 6HR MAX TEMP:  66;

WICHITA MCCONL CLEAR     53  43  70 S5        29.70R
WINFIELD       CLEAR     49  44  83 S5        29.72R
6HR MIN TEMP:  47; 6HR MAX TEMP:  67;

$$

KSZ007>012-019>026-033>040-048>060-102>105-250700-
NORTHEAST KANSAS

CITY           SKY/WX    TMP DP  RH WIND       PRES   REMARKS
CONCORDIA      CLEAR     48  45  89 S8        29.66F
6HR MIN TEMP:  48; 6HR MAX TEMP:  65;

EMPORIA        CLEAR     50  46  86 S6        29.70F
6HR MIN TEMP:  48; 6HR MAX TEMP:  66;

LAWRENCE       CLEAR     48  48 100 CALM      29.70F
6HR MIN TEMP:  48; 6HR MAX TEMP:  67;

MANHATTAN      CLEAR     47  46  97 CALM      29.69F
6HR MIN TEMP:  46; 6HR MAX TEMP:  68;

MARYSVILLE     CLEAR     50  46  87 SE3       29.68F
OLATHE IND     CLEAR     49  47  93 CALM      29.71S
6HR MIN TEMP:  49; 6HR MAX TEMP:  62;

OLATHE EXE     CLEAR     50  49  96 CALM      29.70F
6HR MIN TEMP:  50; 6HR MAX TEMP:  65;

SALINA         CLEAR     53  46  77 SE7       29.68S
6HR MIN TEMP:  50; 6HR MAX TEMP:  68;

TOPEKA BILLARD CLEAR     52  51  97 CALM      29.70S
6HR MIN TEMP:  52; 6HR MAX TEMP:  69;

TOPEKA FORBES  CLEAR     51  48  89 CALM      29.70S
6HR MIN TEMP:  50; 6HR MAX TEMP:  69;

$$




USA.gov is the U.S. government's official web portal to all federal, state and local government web resources and services.